Time,TemperatureF,DewpointF,PressureIn,WindDirection,WindDirectionDegrees,WindSpeedMPH,WindSpeedGustMPH,Humidity,HourlyPrecipIn,Conditions,Clouds,dailyrainin,SoftwareType,DateUTC
2013-10-14 00:03:00,40.7,38.6,30.32,North,-999,0.0,0.0,92,0.00,,,0.00,ow4j130929,2013-10-14 07:03:00,
2013-10-14 00:09:00,39.8,37.7,30.32,North,-999,0.0,0.0,92,0.00,,,0.00,ow4j130929,2013-10-14 07:09:00,
2013-10-14 00:14:00,39.2,37.2,30.32,North,-999,0.0,0.0,92,0.00,,,0.00,ow4j130929,2013-10-14 07:14:00,
2013-10-14 00:19:00,39.5,37.6,30.32,North,-999,0.0,0.0,93,0.00,,,0.00,ow4j130929,2013-10-14 07:19:00,
2013-10-14 00:24:00,39.8,38.0,30.32,North,-999,0.0,0.0,93,0.00,,,0.00,ow4j130929,2013-10-14 07:24:00,
2013-10-14 00:29:00,39.8,38.0,30.32,North,-999,0.0,0.0,93,0.00,,,0.00,ow4j130929,2013-10-14 07:29:00,
2013-10-14 00:34:00,40.2,38.5,30.33,North,-999,0.0,0.0,94,0.00,,,0.00,ow4j130929,2013-10-14 07:34:00,
2013-10-14 00:39:00,40.8,39.1,30.32,North,-999,0.0,0.0,94,0.00,,,0.00,ow4j130929,2013-10-14 07:39:00,
2013-10-14 00:44:00,40.8,39.1,30.33,North,-999,0.0,0.0,94,0.00,,,0.00,ow4j130929,2013-10-14 07:44:00,
2013-10-14 00:49:00,40.9,39.2,30.33,North,-999,0.0,0.0,94,0.00,,,0.00,ow4j130929,2013-10-14 07:49:00,
2013-10-14 00:54:00,41.1,39.5,30.33,North,-999,0.0,0.0,94,0.00,,,0.00,ow4j130929,2013-10-14 07:54:00,
2013-10-14 00:59:00,40.9,39.3,30.32,North,-999,0.0,0.0,94,0.00,,,0.00,ow4j130929,2013-10-14 07:59:00,
2013-10-14 01:04:00,41.1,39.5,30.33,North,-999,0.0,0.0,94,0.00,,,0.00,ow4j130929,2013-10-14 08:04:00,
2013-10-14 01:09:00,41.1,39.5,30.33,North,-999,0.0,0.0,94,0.00,,,0.00,ow4j130929,2013-10-14 08:09:00,
2013-10-14 01:14:00,41.0,39.4,30.33,North,-999,0.0,0.0,94,0.00,,,0.00,ow4j130929,2013-10-14 08:14:00,
2013-10-14 01:19:00,41.1,39.5,30.33,North,-999,0.0,0.0,94,0.00,,,0.00,ow4j130929,2013-10-14 08:19:00,
2013-10-14 01:24:00,41.0,39.4,30.33,North,-999,0.0,0.0,94,0.00,,,0.00,ow4j130929,2013-10-14 08:24:00,
2013-10-14 01:29:00,41.1,39.6,30.33,North,-999,0.0,0.0,94,0.00,,,0.00,ow4j130929,2013-10-14 08:29:00,
2013-10-14 01:34:00,41.6,40.0,30.33,North,-999,0.0,0.0,94,0.00,,,0.00,ow4j130929,2013-10-14 08:34:00,
2013-10-14 01:39:00,41.5,39.9,30.33,North,-999,0.0,0.0,94,0.00,,,0.00,ow4j130929,2013-10-14 08:39:00,
2013-10-14 01:44:00,41.3,39.6,30.33,North,-999,0.0,0.0,94,0.00,,,0.00,ow4j130929,2013-10-14 08:44:00,
2013-10-14 01:49:00,41.4,39.7,30.33,North,-999,0.0,0.0,93,0.00,,,0.00,ow4j130929,2013-10-14 08:49:00,
2013-10-14 01:54:00,41.5,39.6,30.33,North,-999,0.0,0.0,93,0.00,,,0.00,ow4j130929,2013-10-14 08:54:00,
2013-10-14 01:59:00,41.4,39.3,30.33,North,-999,0.0,0.0,92,0.00,,,0.00,ow4j130929,2013-10-14 08:59:00,
2013-10-14 02:04:00,40.7,38.4,30.33,North,-999,0.0,0.0,92,0.00,,,0.00,ow4j130929,2013-10-14 09:04:00,
2013-10-14 02:09:00,39.6,37.3,30.33,North,-999,0.0,0.0,91,0.00,,,0.00,ow4j130929,2013-10-14 09:09:00,
2013-10-14 02:14:00,38.8,36.6,30.33,North,-999,0.0,0.0,92,0.00,,,0.00,ow4j130929,2013-10-14 09:14:00,
2013-10-14 02:19:00,38.8,36.6,30.33,North,-999,0.0,0.0,92,0.00,,,0.00,ow4j130929,2013-10-14 09:19:00,
2013-10-14 02:24:00,38.9,36.7,30.33,North,-999,0.0,0.0,92,0.00,,,0.00,ow4j130929,2013-10-14 09:24:00,
2013-10-14 02:29:00,39.2,37.1,30.33,North,-999,0.0,0.0,92,0.00,,,0.00,ow4j130929,2013-10-14 09:29:00,
2013-10-14 02:34:00,39.8,37.8,30.33,North,-999,0.0,0.0,92,0.00,,,0.00,ow4j130929,2013-10-14 09:34:00,
2013-10-14 02:39:00,40.2,38.1,30.33,North,-999,0.0,0.0,92,0.00,,,0.00,ow4j130929,2013-10-14 09:39:00,
2013-10-14 02:44:00,40.5,38.3,30.33,North,356,0.3,1.6,92,0.00,,,0.00,ow4j130929,2013-10-14 09:44:00,
2013-10-14 02:49:00,41.0,38.9,30.34,North,-999,0.0,0.0,92,0.00,,,0.00,ow4j130929,2013-10-14 09:49:00,
2013-10-14 02:54:00,41.3,39.1,30.34,North,4,0.1,0.8,92,0.00,,,0.00,ow4j130929,2013-10-14 09:54:00,
2013-10-14 02:59:00,41.4,39.0,30.34,North,-999,0.0,0.0,91,0.00,,,0.00,ow4j130929,2013-10-14 09:59:00,
2013-10-14 03:04:00,41.4,39.0,30.34,NNE,15,0.0,0.8,91,0.00,,,0.00,ow4j130929,2013-10-14 10:04:00,
2013-10-14 03:09:00,41.4,38.9,30.34,North,-999,0.0,0.0,91,0.00,,,0.00,ow4j130929,2013-10-14 10:09:00,
2013-10-14 03:14:00,41.1,38.5,30.34,North,-999,0.0,0.0,90,0.00,,,0.00,ow4j130929,2013-10-14 10:14:00,
2013-10-14 03:19:00,40.2,37.5,30.34,North,-999,0.0,0.0,90,0.00,,,0.00,ow4j130929,2013-10-14 10:19:00,
2013-10-14 03:24:00,40.4,37.8,30.34,North,-999,0.0,0.0,90,0.00,,,0.00,ow4j130929,2013-10-14 10:24:00,
2013-10-14 03:29:00,40.4,37.8,30.34,North,-999,0.0,0.0,90,0.00,,,0.00,ow4j130929,2013-10-14 10:29:00,
2013-10-14 03:34:00,39.6,36.8,30.34,North,-999,0.0,0.0,90,0.00,,,0.00,ow4j130929,2013-10-14 10:34:00,
2013-10-14 03:39:00,39.2,36.3,30.33,North,-999,0.0,0.0,89,0.00,,,0.00,ow4j130929,2013-10-14 10:39:00,
2013-10-14 03:44:00,39.0,36.1,30.33,North,-999,0.0,0.0,89,0.00,,,0.00,ow4j130929,2013-10-14 10:44:00,
2013-10-14 03:49:00,39.3,36.4,30.33,North,2,0.6,2.5,89,0.00,,,0.00,ow4j130929,2013-10-14 10:49:00,
2013-10-14 03:54:00,40.5,37.5,30.34,North,357,0.8,1.6,89,0.00,,,0.00,ow4j130929,2013-10-14 10:54:00,
2013-10-14 03:59:00,41.1,37.9,30.34,North,353,0.2,1.6,88,0.00,,,0.00,ow4j130929,2013-10-14 10:59:00,
2013-10-14 04:04:00,41.2,37.8,30.34,North,355,1.9,2.5,87,0.00,,,0.00,ow4j130929,2013-10-14 11:04:00,
2013-10-14 04:09:00,41.3,37.6,30.34,North,1,1.6,2.5,86,0.00,,,0.00,ow4j130929,2013-10-14 11:09:00,
2013-10-14 04:14:00,41.5,37.7,30.34,North,11,0.6,1.6,86,0.00,,,0.00,ow4j130929,2013-10-14 11:14:00,
2013-10-14 04:19:00,41.5,37.5,30.34,North,1,0.4,1.6,86,0.00,,,0.00,ow4j130929,2013-10-14 11:19:00,
2013-10-14 04:24:00,41.3,37.3,30.34,North,-999,0.0,0.0,85,0.00,,,0.00,ow4j130929,2013-10-14 11:24:00,
2013-10-14 04:29:00,41.1,37.1,30.34,North,-999,0.0,0.0,85,0.00,,,0.00,ow4j130929,2013-10-14 11:29:00,
2013-10-14 04:35:00,40.3,36.4,30.34,North,-999,0.0,0.0,86,0.00,,,0.00,ow4j130929,2013-10-14 11:35:00,
2013-10-14 04:40:00,39.3,35.4,30.34,North,349,0.5,2.5,86,0.00,,,0.00,ow4j130929,2013-10-14 11:40:00,
2013-10-14 04:45:00,39.5,35.9,30.34,NNW,346,0.7,2.5,87,0.00,,,0.00,ow4j130929,2013-10-14 11:45:00,
2013-10-14 04:50:00,40.4,36.8,30.34,North,-999,0.0,0.0,87,0.00,,,0.00,ow4j130929,2013-10-14 11:50:00,
2013-10-14 04:55:00,40.8,37.1,30.34,North,-999,0.0,0.0,87,0.00,,,0.00,ow4j130929,2013-10-14 11:55:00,
2013-10-14 05:00:00,41.1,37.4,30.34,North,-999,0.0,0.0,87,0.00,,,0.00,ow4j130929,2013-10-14 12:00:00,
2013-10-14 05:05:00,41.3,37.5,30.34,North,-999,0.0,0.0,86,0.00,,,0.00,ow4j130929,2013-10-14 12:05:00,
2013-10-14 05:10:00,41.2,37.4,30.34,North,6,0.0,0.8,86,0.00,,,0.00,ow4j130929,2013-10-14 12:10:00,
2013-10-14 05:15:00,41.0,37.3,30.34,North,-999,0.0,0.0,87,0.00,,,0.00,ow4j130929,2013-10-14 12:15:00,
2013-10-14 05:20:00,41.0,37.4,30.34,North,-999,0.0,0.0,87,0.00,,,0.00,ow4j130929,2013-10-14 12:20:00,
2013-10-14 05:25:00,41.0,37.5,30.34,North,-999,0.0,0.0,87,0.00,,,0.00,ow4j130929,2013-10-14 12:25:00,
2013-10-14 05:30:00,41.1,37.7,30.34,North,355,0.0,0.8,88,0.00,,,0.00,ow4j130929,2013-10-14 12:30:00,
2013-10-14 05:35:00,40.9,37.5,30.34,North,-999,0.0,0.0,88,0.00,,,0.00,ow4j130929,2013-10-14 12:35:00,
2013-10-14 05:40:00,40.8,37.4,30.34,North,-999,0.0,0.0,88,0.00,,,0.00,ow4j130929,2013-10-14 12:40:00,
2013-10-14 05:45:00,41.0,37.7,30.34,North,-999,0.0,0.0,88,0.00,,,0.00,ow4j130929,2013-10-14 12:45:00,
2013-10-14 05:50:00,41.3,37.9,30.34,North,-999,0.0,0.0,88,0.00,,,0.00,ow4j130929,2013-10-14 12:50:00,
2013-10-14 05:55:00,40.7,37.4,30.35,North,-999,0.0,0.0,88,0.00,,,0.00,ow4j130929,2013-10-14 12:55:00,
2013-10-14 06:00:00,39.9,36.5,30.35,North,-999,0.0,0.0,87,0.00,,,0.00,ow4j130929,2013-10-14 13:00:00,
2013-10-14 06:05:00,39.3,35.7,30.35,North,-999,0.0,0.0,87,0.00,,,0.00,ow4j130929,2013-10-14 13:05:00,
2013-10-14 06:10:00,38.6,35.1,30.35,North,-999,0.0,0.0,87,0.00,,,0.00,ow4j130929,2013-10-14 13:10:00,
2013-10-14 06:15:00,38.5,35.3,30.35,North,-999,0.0,0.0,88,0.00,,,0.00,ow4j130929,2013-10-14 13:15:00,
2013-10-14 06:20:00,39.3,36.5,30.36,North,-999,0.0,0.0,90,0.00,,,0.00,ow4j130929,2013-10-14 13:20:00,
2013-10-14 06:25:00,40.1,37.4,30.36,North,-999,0.0,0.0,90,0.00,,,0.00,ow4j130929,2013-10-14 13:25:00,
2013-10-14 06:30:00,40.2,37.6,30.36,North,-999,0.0,0.0,90,0.00,,,0.00,ow4j130929,2013-10-14 13:30:00,
2013-10-14 06:35:00,40.2,37.7,30.36,North,-999,0.0,0.0,90,0.00,,,0.00,ow4j130929,2013-10-14 13:35:00,
2013-10-14 06:40:00,39.9,37.4,30.36,NNW,346,0.3,1.6,90,0.00,,,0.00,ow4j130929,2013-10-14 13:40:00,
2013-10-14 06:45:00,39.6,37.1,30.36,North,-999,0.0,0.0,90,0.00,,,0.00,ow4j130929,2013-10-14 13:45:00,
2013-10-14 06:50:00,39.4,36.8,30.36,North,-999,0.0,0.0,90,0.00,,,0.00,ow4j130929,2013-10-14 13:50:00,
2013-10-14 06:55:00,39.2,36.5,30.36,North,-999,0.0,0.0,90,0.00,,,0.00,ow4j130929,2013-10-14 13:55:00,
2013-10-14 07:00:00,39.5,36.7,30.36,North,-999,0.0,0.0,90,0.00,,,0.00,ow4j130929,2013-10-14 14:00:00,
2013-10-14 07:05:00,38.8,35.8,30.36,North,-999,0.0,0.0,89,0.00,,,0.00,ow4j130929,2013-10-14 14:05:00,
2013-10-14 07:11:00,38.0,35.0,30.36,North,-999,0.0,0.0,89,0.00,,,0.00,ow4j130929,2013-10-14 14:11:00,
2013-10-14 07:16:00,37.1,34.2,30.36,North,-999,0.0,0.0,89,0.00,,,0.00,ow4j130929,2013-10-14 14:16:00,
2013-10-14 07:21:00,36.4,33.4,30.36,North,-999,0.0,0.0,89,0.00,,,0.00,ow4j130929,2013-10-14 14:21:00,
2013-10-14 07:26:00,36.1,33.1,30.36,North,-999,0.0,0.0,89,0.00,,,0.00,ow4j130929,2013-10-14 14:26:00,
2013-10-14 07:31:00,36.0,33.1,30.36,ESE,113,0.2,1.6,89,0.00,,,0.00,ow4j130929,2013-10-14 14:31:00,
2013-10-14 07:36:00,35.6,32.8,30.37,North,-999,0.0,0.0,89,0.00,,,0.00,ow4j130929,2013-10-14 14:36:00,
2013-10-14 07:41:00,35.3,32.6,30.37,North,-999,0.0,0.0,90,0.00,,,0.00,ow4j130929,2013-10-14 14:41:00,
2013-10-14 07:46:00,35.4,32.8,30.37,North,-999,0.0,0.0,90,0.00,,,0.00,ow4j130929,2013-10-14 14:46:00,
2013-10-14 07:51:00,35.5,33.0,30.37,North,-999,0.0,0.0,90,0.00,,,0.00,ow4j130929,2013-10-14 14:51:00,
2013-10-14 07:56:00,35.7,33.3,30.37,North,-999,0.0,0.0,91,0.00,,,0.00,ow4j130929,2013-10-14 14:56:00,
2013-10-14 08:01:00,35.9,33.5,30.37,North,-999,0.0,0.0,91,0.00,,,0.00,ow4j130929,2013-10-14 15:01:00,
2013-10-14 08:06:00,36.0,33.6,30.37,North,-999,0.0,0.0,91,0.00,,,0.00,ow4j130929,2013-10-14 15:06:00,
2013-10-14 08:11:00,36.3,34.0,30.37,North,-999,0.0,0.0,91,0.00,,,0.00,ow4j130929,2013-10-14 15:11:00,
2013-10-14 08:16:00,36.9,34.6,30.37,North,-999,0.0,0.0,91,0.00,,,0.00,ow4j130929,2013-10-14 15:16:00,
2013-10-14 08:21:00,37.4,35.2,30.38,North,-999,0.0,0.0,92,0.00,,,0.00,ow4j130929,2013-10-14 15:21:00,
2013-10-14 08:26:00,37.8,35.6,30.38,North,-999,0.0,0.0,92,0.00,,,0.00,ow4j130929,2013-10-14 15:26:00,
2013-10-14 08:31:00,38.5,36.3,30.38,North,-999,0.0,0.0,92,0.00,,,0.00,ow4j130929,2013-10-14 15:31:00,
2013-10-14 08:36:00,39.2,36.9,30.38,North,-999,0.0,0.0,91,0.00,,,0.00,ow4j130929,2013-10-14 15:36:00,
2013-10-14 08:41:00,39.9,37.5,30.38,North,-999,0.0,0.0,91,0.00,,,0.00,ow4j130929,2013-10-14 15:41:00,
2013-10-14 08:46:00,39.9,37.3,30.38,North,-999,0.0,0.0,90,0.00,,,0.00,ow4j130929,2013-10-14 15:46:00,
2013-10-14 08:51:00,39.7,36.9,30.38,North,-999,0.0,0.0,89,0.00,,,0.00,ow4j130929,2013-10-14 15:51:00,
2013-10-14 08:56:00,40.1,37.3,30.38,North,-999,0.0,0.0,89,0.00,,,0.00,ow4j130929,2013-10-14 15:56:00,
2013-10-14 09:01:00,41.2,38.3,30.38,North,-999,0.0,0.0,90,0.00,,,0.00,ow4j130929,2013-10-14 16:01:00,
2013-10-14 09:06:00,42.4,39.4,30.38,North,-999,0.0,0.0,89,0.00,,,0.00,ow4j130929,2013-10-14 16:06:00,
2013-10-14 09:11:00,43.1,39.8,30.38,North,-999,0.0,0.0,88,0.00,,,0.00,ow4j130929,2013-10-14 16:11:00,
2013-10-14 09:16:00,43.8,40.2,30.38,North,-999,0.0,0.0,87,0.00,,,0.00,ow4j130929,2013-10-14 16:16:00,
2013-10-14 09:21:00,44.5,40.7,30.38,North,-999,0.0,0.0,87,0.00,,,0.00,ow4j130929,2013-10-14 16:21:00,
2013-10-14 09:26:00,45.0,40.9,30.38,North,8,0.1,0.8,85,0.00,,,0.00,ow4j130929,2013-10-14 16:26:00,
2013-10-14 09:31:00,45.2,40.6,30.38,North,-999,0.0,0.0,84,0.00,,,0.00,ow4j130929,2013-10-14 16:31:00,
2013-10-14 09:36:00,45.3,40.4,30.38,North,-999,0.0,0.0,83,0.00,,,0.00,ow4j130929,2013-10-14 16:36:00,
2013-10-14 09:41:00,45.6,40.5,30.38,North,-999,0.0,0.0,82,0.00,,,0.00,ow4j130929,2013-10-14 16:41:00,
2013-10-14 09:46:00,45.8,40.6,30.38,North,-999,0.0,0.0,82,0.00,,,0.00,ow4j130929,2013-10-14 16:46:00,
2013-10-14 09:51:00,46.2,40.7,30.38,North,-999,0.0,0.0,81,0.00,,,0.00,ow4j130929,2013-10-14 16:51:00,
2013-10-14 09:56:00,46.7,41.0,30.38,NNE,25,0.0,0.8,80,0.00,,,0.00,ow4j130929,2013-10-14 16:56:00,
2013-10-14 10:01:00,47.3,41.2,30.39,North,-999,0.0,0.0,79,0.00,,,0.00,ow4j130929,2013-10-14 17:01:00,
2013-10-14 10:06:00,47.6,41.2,30.39,NNW,343,0.2,1.6,78,0.00,,,0.00,ow4j130929,2013-10-14 17:06:00,
2013-10-14 10:11:00,47.8,41.0,30.39,North,4,0.6,3.3,77,0.00,,,0.00,ow4j130929,2013-10-14 17:11:00,
2013-10-14 10:16:00,48.3,41.2,30.39,North,-999,0.0,0.0,76,0.00,,,0.00,ow4j130929,2013-10-14 17:16:00,
2013-10-14 10:21:00,49.0,41.7,30.39,ENE,60,0.1,0.8,76,0.00,,,0.00,ow4j130929,2013-10-14 17:21:00,
2013-10-14 10:26:00,49.6,41.9,30.39,East,96,3.1,7.4,74,0.00,,,0.00,ow4j130929,2013-10-14 17:26:00,
2013-10-14 10:31:00,50.0,41.6,30.39,North,353,0.0,0.8,73,0.00,,,0.00,ow4j130929,2013-10-14 17:31:00,
2013-10-14 10:36:00,50.5,41.6,30.39,North,-999,0.0,0.0,71,0.00,,,0.00,ow4j130929,2013-10-14 17:36:00,
2013-10-14 10:41:00,51.0,42.0,30.39,South,171,0.2,2.5,71,0.00,,,0.00,ow4j130929,2013-10-14 17:41:00,
2013-10-14 10:46:00,51.6,42.6,30.39,ESE,121,4.6,6.6,71,0.00,,,0.00,ow4j130929,2013-10-14 17:46:00,
2013-10-14 10:51:00,53.2,43.9,30.38,East,82,1.3,4.9,70,0.00,,,0.00,ow4j130929,2013-10-14 17:51:00,
2013-10-14 10:56:00,54.3,44.6,30.38,SSE,162,0.9,2.5,70,0.00,,,0.00,ow4j130929,2013-10-14 17:56:00,
2013-10-14 11:01:00,53.7,43.7,30.38,East,100,0.4,3.3,69,0.00,,,0.00,ow4j130929,2013-10-14 18:01:00,
2013-10-14 11:06:00,52.9,42.4,30.38,WNW,292,2.7,7.4,67,0.00,,,0.00,ow4j130929,2013-10-14 18:06:00,
2013-10-14 11:11:00,53.5,43.5,30.38,WNW,293,2.9,9.8,69,0.00,,,0.00,ow4j130929,2013-10-14 18:11:00,
2013-10-14 11:16:00,53.2,44.2,30.38,North,350,1.6,4.1,72,0.00,,,0.00,ow4j130929,2013-10-14 18:16:00,
2013-10-14 11:21:00,52.8,44.4,30.38,NNW,340,1.5,5.8,73,0.00,,,0.00,ow4j130929,2013-10-14 18:21:00,
2013-10-14 11:26:00,53.3,44.9,30.38,NW,314,1.8,4.1,73,0.00,,,0.00,ow4j130929,2013-10-14 18:26:00,
2013-10-14 11:31:00,54.2,45.8,30.38,WNW,289,2.5,9.8,73,0.00,,,0.00,ow4j130929,2013-10-14 18:31:00,
2013-10-14 11:36:00,54.2,45.6,30.38,West,263,2.2,8.2,73,0.00,,,0.00,ow4j130929,2013-10-14 18:36:00,
2013-10-14 11:41:00,53.4,44.6,30.38,NNE,30,0.2,1.6,72,0.00,,,0.00,ow4j130929,2013-10-14 18:41:00,
2013-10-14 11:46:00,52.1,42.9,30.38,WSW,248,5.8,9.8,71,0.00,,,0.00,ow4j130929,2013-10-14 18:46:00,
2013-10-14 11:51:00,52.8,43.4,30.38,NNW,328,2.4,4.1,70,0.00,,,0.00,ow4j130929,2013-10-14 18:51:00,
2013-10-14 11:56:00,52.9,43.6,30.38,WNW,301,2.4,4.1,70,0.00,,,0.00,ow4j130929,2013-10-14 18:56:00,
2013-10-14 12:01:00,51.6,42.2,30.38,WNW,285,2.2,8.2,70,0.00,,,0.00,ow4j130929,2013-10-14 19:01:00,
2013-10-14 12:06:00,52.2,42.5,30.38,WNW,300,2.0,4.1,69,0.00,,,0.00,ow4j130929,2013-10-14 19:06:00,
2013-10-14 12:11:00,52.2,42.5,30.38,West,277,2.5,7.4,69,0.00,,,0.00,ow4j130929,2013-10-14 19:11:00,
2013-10-14 12:17:00,51.5,42.2,30.38,WSW,253,7.6,11.6,70,0.00,,,0.00,ow4j130929,2013-10-14 19:17:00,
2013-10-14 12:22:00,51.0,41.9,30.38,West,259,4.1,8.1,71,0.00,,,0.00,ow4j130929,2013-10-14 19:22:00,
2013-10-14 12:27:00,50.8,41.7,30.38,West,264,4.3,8.2,71,0.00,,,0.00,ow4j130929,2013-10-14 19:27:00,
2013-10-14 12:32:00,51.8,42.4,30.38,WNW,283,1.8,4.8,70,0.00,,,0.00,ow4j130929,2013-10-14 19:32:00,
2013-10-14 12:37:00,53.1,43.4,30.38,WNW,294,2.1,4.1,70,0.00,,,0.00,ow4j130929,2013-10-14 19:37:00,
2013-10-14 12:42:00,54.0,44.0,30.38,SSW,206,1.6,5.7,69,0.00,,,0.00,ow4j130929,2013-10-14 19:42:00,
2013-10-14 12:47:00,54.1,44.1,30.38,NW,308,1.9,3.3,69,0.00,,,0.00,ow4j130929,2013-10-14 19:47:00,
2013-10-14 12:52:00,54.3,44.5,30.38,NNW,338,3.3,4.9,69,0.00,,,0.00,ow4j130929,2013-10-14 19:52:00,
2013-10-14 12:57:00,54.2,44.3,30.38,NW,326,2.6,4.9,69,0.00,,,0.00,ow4j130929,2013-10-14 19:57:00,
2013-10-14 13:02:00,54.0,44.1,30.38,NW,324,2.7,4.1,69,0.00,,,0.00,ow4j130929,2013-10-14 20:02:00,
2013-10-14 13:07:00,53.9,44.2,30.38,NNW,328,0.3,1.6,70,0.00,,,0.00,ow4j130929,2013-10-14 20:07:00,
2013-10-14 13:12:00,54.0,44.1,30.37,West,278,4.9,11.4,69,0.00,,,0.00,ow4j130929,2013-10-14 20:12:00,
2013-10-14 13:17:00,54.2,44.2,30.37,WNW,294,3.7,13.1,69,0.00,,,0.00,ow4j130929,2013-10-14 20:17:00,
2013-10-14 13:22:00,54.3,44.2,30.37,NNW,328,1.6,3.3,69,0.00,,,0.00,ow4j130929,2013-10-14 20:22:00,
2013-10-14 13:27:00,54.4,44.4,30.37,NNW,333,1.2,4.1,69,0.00,,,0.00,ow4j130929,2013-10-14 20:27:00,
2013-10-14 13:32:00,54.6,44.5,30.36,NW,308,3.1,4.9,69,0.00,,,0.00,ow4j130929,2013-10-14 20:32:00,
2013-10-14 13:37:00,54.7,44.4,30.36,NW,308,2.5,4.1,68,0.00,,,0.00,ow4j130929,2013-10-14 20:37:00,
2013-10-14 13:42:00,54.8,44.5,30.36,NNW,327,2.0,4.9,68,0.00,,,0.00,ow4j130929,2013-10-14 20:42:00,
2013-10-14 13:47:00,55.1,44.9,30.36,NNW,329,1.9,4.1,68,0.00,,,0.00,ow4j130929,2013-10-14 20:47:00,
2013-10-14 13:52:00,55.6,45.1,30.36,WNW,294,3.0,5.8,68,0.00,,,0.00,ow4j130929,2013-10-14 20:52:00,
2013-10-14 13:57:00,55.7,44.8,30.36,West,262,5.6,9.9,66,0.00,,,0.00,ow4j130929,2013-10-14 20:57:00,
2013-10-14 14:02:00,55.7,44.7,30.36,NNW,344,0.8,2.5,66,0.00,,,0.00,ow4j130929,2013-10-14 21:02:00,
2013-10-14 14:07:00,55.8,44.7,30.35,WNW,291,1.6,4.1,66,0.00,,,0.00,ow4j130929,2013-10-14 21:07:00,
2013-10-14 14:12:00,56.2,44.9,30.35,West,265,4.7,10.6,66,0.00,,,0.00,ow4j130929,2013-10-14 21:12:00,
2013-10-14 14:17:00,56.1,44.6,30.35,West,259,8.1,13.9,65,0.00,,,0.00,ow4j130929,2013-10-14 21:17:00,
2013-10-14 14:22:00,55.8,44.3,30.35,NNW,328,0.7,4.9,65,0.00,,,0.00,ow4j130929,2013-10-14 21:22:00,
2013-10-14 14:27:00,56.0,44.6,30.35,NW,319,2.0,4.9,65,0.00,,,0.00,ow4j130929,2013-10-14 21:27:00,
2013-10-14 14:32:00,56.5,44.6,30.35,NNW,331,1.7,4.1,64,0.00,,,0.00,ow4j130929,2013-10-14 21:32:00,
2013-10-14 14:37:00,56.7,44.3,30.35,NNW,342,0.9,3.3,63,0.00,,,0.00,ow4j130929,2013-10-14 21:37:00,
2013-10-14 14:42:00,56.7,44.1,30.35,NNW,328,1.4,5.7,63,0.00,,,0.00,ow4j130929,2013-10-14 21:42:00,
2013-10-14 14:47:00,56.3,44.4,30.35,WSW,241,5.5,9.0,64,0.00,,,0.00,ow4j130929,2013-10-14 21:47:00,
2013-10-14 14:52:00,56.3,45.1,30.35,NW,313,1.9,4.1,66,0.00,,,0.00,ow4j130929,2013-10-14 21:52:00,
2013-10-14 14:57:00,56.5,45.2,30.34,WNW,287,2.7,9.0,66,0.00,,,0.00,ow4j130929,2013-10-14 21:57:00,
2013-10-14 15:02:00,56.6,45.0,30.34,WNW,302,0.9,3.3,65,0.00,,,0.00,ow4j130929,2013-10-14 22:02:00,
2013-10-14 15:07:00,56.8,45.4,30.34,West,262,1.4,5.7,66,0.00,,,0.00,ow4j130929,2013-10-14 22:07:00,
2013-10-14 15:12:00,57.0,45.9,30.34,SW,218,1.4,3.3,66,0.00,,,0.00,ow4j130929,2013-10-14 22:12:00,
2013-10-14 15:17:00,56.7,45.0,30.34,NNW,332,1.6,3.3,65,0.00,,,0.00,ow4j130929,2013-10-14 22:17:00,
2013-10-14 15:22:00,56.7,44.4,30.34,WSW,256,2.6,4.9,63,0.00,,,0.00,ow4j130929,2013-10-14 22:22:00,
2013-10-14 15:27:00,57.8,45.8,30.34,SW,230,1.6,5.7,64,0.00,,,0.00,ow4j130929,2013-10-14 22:27:00,
2013-10-14 15:32:00,58.4,46.7,30.34,WSW,258,2.1,4.1,65,0.00,,,0.00,ow4j130929,2013-10-14 22:32:00,
2013-10-14 15:37:00,58.1,46.2,30.34,West,260,3.9,10.6,65,0.00,,,0.00,ow4j130929,2013-10-14 22:37:00,
2013-10-14 15:42:00,57.3,45.8,30.33,WSW,247,5.8,11.4,65,0.00,,,0.00,ow4j130929,2013-10-14 22:42:00,
2013-10-14 15:47:00,55.6,44.7,30.33,West,267,4.7,9.8,67,0.00,,,0.00,ow4j130929,2013-10-14 22:47:00,
2013-10-14 15:52:00,55.2,44.5,30.34,West,270,6.1,9.0,67,0.00,,,0.00,ow4j130929,2013-10-14 22:52:00,
2013-10-14 15:57:00,55.7,45.5,30.34,West,271,2.6,6.5,68,0.00,,,0.00,ow4j130929,2013-10-14 22:57:00,
2013-10-14 16:02:00,56.1,46.2,30.33,WSW,252,6.8,10.6,69,0.00,,,0.00,ow4j130929,2013-10-14 23:02:00,
2013-10-14 16:07:00,55.9,46.3,30.33,West,261,6.5,11.4,70,0.00,,,0.00,ow4j130929,2013-10-14 23:07:00,
2013-10-14 16:12:00,55.5,46.2,30.33,West,274,4.0,8.1,71,0.00,,,0.00,ow4j130929,2013-10-14 23:12:00,
2013-10-14 16:17:00,55.3,46.2,30.33,WSW,246,5.8,9.0,71,0.00,,,0.00,ow4j130929,2013-10-14 23:17:00,
2013-10-14 16:22:00,55.3,46.3,30.33,WSW,258,5.0,6.5,72,0.00,,,0.00,ow4j130929,2013-10-14 23:22:00,
2013-10-14 16:27:00,55.0,46.1,30.33,WSW,252,4.3,7.5,72,0.00,,,0.00,ow4j130929,2013-10-14 23:27:00,
2013-10-14 16:32:00,54.8,46.0,30.33,WSW,251,8.0,10.6,72,0.00,,,0.00,ow4j130929,2013-10-14 23:32:00,
2013-10-14 16:37:00,54.4,45.7,30.33,West,276,4.4,10.2,72,0.00,,,0.00,ow4j130929,2013-10-14 23:37:00,
2013-10-14 16:42:00,54.0,45.6,30.33,WNW,298,0.5,1.6,73,0.00,,,0.00,ow4j130929,2013-10-14 23:42:00,
2013-10-14 16:47:00,53.9,45.5,30.33,WNW,299,1.9,4.9,73,0.00,,,0.00,ow4j130929,2013-10-14 23:47:00,
2013-10-14 16:52:00,53.8,45.3,30.33,West,269,3.6,6.5,73,0.00,,,0.00,ow4j130929,2013-10-14 23:52:00,
2013-10-14 16:57:00,53.6,45.1,30.33,West,265,3.7,9.0,73,0.00,,,0.00,ow4j130929,2013-10-14 23:57:00,
2013-10-14 17:02:00,53.4,45.1,30.33,WNW,290,2.0,4.9,73,0.00,,,0.00,ow4j130929,2013-10-15 00:02:00,
2013-10-14 17:08:00,53.6,45.5,30.33,NW,306,0.3,1.6,74,0.00,,,0.00,ow4j130929,2013-10-15 00:08:00,
2013-10-14 17:13:00,53.9,45.8,30.33,WNW,294,2.5,4.9,74,0.00,,,0.00,ow4j130929,2013-10-15 00:13:00,
2013-10-14 17:18:00,53.9,45.5,30.33,WNW,298,1.0,3.3,73,0.00,,,0.00,ow4j130929,2013-10-15 00:18:00,
2013-10-14 17:23:00,54.0,45.5,30.33,WNW,299,0.9,3.3,73,0.00,,,0.00,ow4j130929,2013-10-15 00:23:00,
2013-10-14 17:28:00,53.9,45.5,30.33,WNW,300,1.6,3.3,73,0.00,,,0.00,ow4j130929,2013-10-15 00:28:00,
2013-10-14 17:33:00,53.7,45.5,30.33,WNW,290,1.2,4.1,74,0.00,,,0.00,ow4j130929,2013-10-15 00:33:00,
2013-10-14 17:38:00,53.5,45.4,30.33,WNW,296,0.6,2.5,74,0.00,,,0.00,ow4j130929,2013-10-15 00:38:00,
2013-10-14 17:43:00,53.3,45.3,30.33,North,-999,0.0,0.0,74,0.00,,,0.00,ow4j130929,2013-10-15 00:43:00,
2013-10-14 17:48:00,52.9,44.9,30.33,North,-999,0.0,0.0,74,0.00,,,0.00,ow4j130929,2013-10-15 00:48:00,
2013-10-14 17:53:00,52.7,44.8,30.33,North,-999,0.0,0.0,74,0.00,,,0.00,ow4j130929,2013-10-15 00:53:00,
2013-10-14 17:58:00,53.5,45.9,30.33,North,-999,0.0,0.0,75,0.00,,,0.00,ow4j130929,2013-10-15 00:58:00,
2013-10-14 18:03:00,53.4,46.5,30.33,North,-999,0.0,0.0,77,0.00,,,0.00,ow4j130929,2013-10-15 01:03:00,
2013-10-14 18:08:00,52.0,45.4,30.33,North,-999,0.0,0.0,78,0.00,,,0.00,ow4j130929,2013-10-15 01:08:00,
2013-10-14 18:13:00,51.1,44.7,30.33,SW,224,0.2,0.8,79,0.00,,,0.00,ow4j130929,2013-10-15 01:13:00,
2013-10-14 18:18:00,50.7,44.5,30.33,North,-999,0.0,0.0,79,0.00,,,0.00,ow4j130929,2013-10-15 01:18:00,
2013-10-14 18:23:00,50.4,44.4,30.33,North,-999,0.0,0.0,80,0.00,,,0.00,ow4j130929,2013-10-15 01:23:00,
2013-10-14 18:28:00,50.0,44.2,30.33,North,-999,0.0,0.0,80,0.00,,,0.00,ow4j130929,2013-10-15 01:28:00,
2013-10-14 18:33:00,49.6,44.1,30.33,North,-999,0.0,0.0,81,0.00,,,0.00,ow4j130929,2013-10-15 01:33:00,
2013-10-14 18:38:00,49.4,44.1,30.33,North,-999,0.0,0.0,82,0.00,,,0.00,ow4j130929,2013-10-15 01:38:00,
2013-10-14 18:43:00,49.0,43.7,30.33,North,-999,0.0,0.0,82,0.00,,,0.00,ow4j130929,2013-10-15 01:43:00,
2013-10-14 18:48:00,48.6,43.5,30.33,North,-999,0.0,0.0,83,0.00,,,0.00,ow4j130929,2013-10-15 01:48:00,
2013-10-14 18:53:00,48.2,43.5,30.33,North,-999,0.0,0.0,84,0.00,,,0.00,ow4j130929,2013-10-15 01:53:00,
2013-10-14 18:58:00,47.9,43.7,30.33,North,-999,0.0,0.0,85,0.00,,,0.00,ow4j130929,2013-10-15 01:58:00,
2013-10-14 19:03:00,47.8,43.9,30.33,North,-999,0.0,0.0,87,0.00,,,0.00,ow4j130929,2013-10-15 02:03:00,
2013-10-14 19:08:00,47.6,43.8,30.33,North,-999,0.0,0.0,87,0.00,,,0.00,ow4j130929,2013-10-15 02:08:00,
2013-10-14 19:13:00,47.3,43.6,30.33,North,-999,0.0,0.0,87,0.00,,,0.00,ow4j130929,2013-10-15 02:13:00,
2013-10-14 19:18:00,46.9,43.3,30.33,North,-999,0.0,0.0,87,0.00,,,0.00,ow4j130929,2013-10-15 02:18:00,
2013-10-14 19:23:00,46.7,43.1,30.33,North,-999,0.0,0.0,87,0.00,,,0.00,ow4j130929,2013-10-15 02:23:00,
2013-10-14 19:28:00,46.4,43.0,30.33,North,-999,0.0,0.0,88,0.00,,,0.00,ow4j130929,2013-10-15 02:28:00,
2013-10-14 19:33:00,46.2,42.9,30.33,North,-999,0.0,0.0,88,0.00,,,0.00,ow4j130929,2013-10-15 02:33:00,
2013-10-14 19:38:00,46.3,42.9,30.33,North,-999,0.0,0.0,88,0.00,,,0.00,ow4j130929,2013-10-15 02:38:00,
2013-10-14 19:43:00,46.1,42.7,30.33,SW,217,0.0,0.8,88,0.00,,,0.00,ow4j130929,2013-10-15 02:43:00,
2013-10-14 19:48:00,45.8,42.4,30.33,North,-999,0.0,0.0,88,0.00,,,0.00,ow4j130929,2013-10-15 02:48:00,
2013-10-14 19:53:00,45.7,42.3,30.33,North,-999,0.0,0.0,88,0.00,,,0.00,ow4j130929,2013-10-15 02:53:00,
2013-10-14 19:58:00,45.6,42.2,30.33,North,-999,0.0,0.0,88,0.00,,,0.00,ow4j130929,2013-10-15 02:58:00,
2013-10-14 20:03:00,45.5,42.3,30.33,North,-999,0.0,0.0,88,0.00,,,0.00,ow4j130929,2013-10-15 03:03:00,
2013-10-14 20:08:00,45.4,42.3,30.33,North,-999,0.0,0.0,89,0.00,,,0.00,ow4j130929,2013-10-15 03:08:00,
2013-10-14 20:13:00,45.3,42.4,30.33,North,-999,0.0,0.0,89,0.00,,,0.00,ow4j130929,2013-10-15 03:13:00,
2013-10-14 20:18:00,45.2,42.4,30.33,North,-999,0.0,0.0,90,0.00,,,0.00,ow4j130929,2013-10-15 03:18:00,
2013-10-14 20:23:00,45.1,42.2,30.33,North,-999,0.0,0.0,90,0.00,,,0.00,ow4j130929,2013-10-15 03:23:00,
2013-10-14 20:28:00,44.9,42.1,30.33,East,89,1.7,3.3,90,0.00,,,0.00,ow4j130929,2013-10-15 03:28:00,
2013-10-14 20:34:00,44.9,42.1,30.33,North,-999,0.0,0.0,90,0.00,,,0.00,ow4j130929,2013-10-15 03:34:00,
2013-10-14 20:39:00,44.7,42.1,30.33,North,-999,0.0,0.0,90,0.00,,,0.00,ow4j130929,2013-10-15 03:39:00,
2013-10-14 20:44:00,44.2,41.6,30.33,North,-999,0.0,0.0,90,0.00,,,0.00,ow4j130929,2013-10-15 03:44:00,
2013-10-14 20:49:00,44.0,41.5,30.33,North,-999,0.0,0.0,91,0.00,,,0.00,ow4j130929,2013-10-15 03:49:00,
2013-10-14 20:54:00,44.1,41.6,30.33,North,-999,0.0,0.0,91,0.00,,,0.00,ow4j130929,2013-10-15 03:54:00,
2013-10-14 20:59:00,43.6,41.2,30.33,North,-999,0.0,0.0,91,0.00,,,0.00,ow4j130929,2013-10-15 03:59:00,
2013-10-14 21:01:00,43.5,41.1,30.34,North,-999,0.0,0.0,91,0.00,,,0.00,ow4j130929,2013-10-15 04:01:00,
2013-10-14 21:02:00,43.4,41.1,30.34,North,-999,0.0,0.0,91,0.00,,,0.00,ow4j130929,2013-10-15 04:02:00,
2013-10-14 21:03:00,43.4,41.0,30.34,North,-999,0.0,0.0,91,0.00,,,0.00,ow4j130929,2013-10-15 04:03:00,
2013-10-14 21:08:00,43.2,40.9,30.34,North,-999,0.0,0.0,91,0.00,,,0.00,ow4j130929,2013-10-15 04:08:00,
2013-10-14 21:13:00,43.5,41.1,30.34,North,-999,0.0,0.0,91,0.00,,,0.00,ow4j130929,2013-10-15 04:13:00,
2013-10-14 21:18:00,43.7,41.4,30.34,North,-999,0.0,0.0,92,0.00,,,0.00,ow4j130929,2013-10-15 04:18:00,
2013-10-14 21:23:00,43.6,41.3,30.34,North,-999,0.0,0.0,92,0.00,,,0.00,ow4j130929,2013-10-15 04:23:00,
2013-10-14 21:28:00,43.4,41.2,30.34,North,-999,0.0,0.0,92,0.00,,,0.00,ow4j130929,2013-10-15 04:28:00,
2013-10-14 21:33:00,43.2,41.1,30.34,North,-999,0.0,0.0,92,0.00,,,0.00,ow4j130929,2013-10-15 04:33:00,
2013-10-14 21:38:00,43.0,40.9,30.34,North,-999,0.0,0.0,92,0.00,,,0.00,ow4j130929,2013-10-15 04:38:00,
2013-10-14 21:43:00,43.0,40.9,30.34,North,-999,0.0,0.0,92,0.00,,,0.00,ow4j130929,2013-10-15 04:43:00,
2013-10-14 21:48:00,43.0,41.0,30.34,North,-999,0.0,0.0,93,0.00,,,0.00,ow4j130929,2013-10-15 04:48:00,
2013-10-14 21:53:00,43.0,41.1,30.34,North,-999,0.0,0.0,93,0.00,,,0.00,ow4j130929,2013-10-15 04:53:00,
2013-10-14 21:58:00,43.0,41.1,30.34,North,-999,0.0,0.0,93,0.00,,,0.00,ow4j130929,2013-10-15 04:58:00,
2013-10-14 22:03:00,43.1,41.2,30.34,North,-999,0.0,0.0,93,0.00,,,0.00,ow4j130929,2013-10-15 05:03:00,
2013-10-14 22:08:00,43.0,41.3,30.34,North,-999,0.0,0.0,93,0.00,,,0.00,ow4j130929,2013-10-15 05:08:00,
2013-10-14 22:13:00,43.1,41.3,30.34,North,-999,0.0,0.0,93,0.00,,,0.00,ow4j130929,2013-10-15 05:13:00,
2013-10-14 22:19:00,43.1,41.4,30.34,North,-999,0.0,0.0,94,0.00,,,0.00,ow4j130929,2013-10-15 05:19:00,
2013-10-14 22:24:00,43.1,41.4,30.34,North,-999,0.0,0.0,94,0.00,,,0.00,ow4j130929,2013-10-15 05:24:00,
2013-10-14 22:29:00,43.1,41.4,30.35,North,-999,0.0,0.0,94,0.00,,,0.00,ow4j130929,2013-10-15 05:29:00,
2013-10-14 22:34:00,43.4,41.7,30.35,North,-999,0.0,0.0,94,0.00,,,0.00,ow4j130929,2013-10-15 05:34:00,
2013-10-14 22:39:00,43.4,41.6,30.35,North,-999,0.0,0.0,94,0.00,,,0.00,ow4j130929,2013-10-15 05:39:00,
2013-10-14 22:44:00,43.2,41.4,30.35,North,-999,0.0,0.0,93,0.00,,,0.00,ow4j130929,2013-10-15 05:44:00,
2013-10-14 22:49:00,43.1,41.5,30.35,North,-999,0.0,0.0,94,0.00,,,0.00,ow4j130929,2013-10-15 05:49:00,
2013-10-14 22:54:00,43.2,41.6,30.35,North,-999,0.0,0.0,94,0.00,,,0.00,ow4j130929,2013-10-15 05:54:00,
2013-10-14 22:59:00,43.2,41.6,30.35,West,263,3.0,4.1,94,0.00,,,0.00,ow4j130929,2013-10-15 05:59:00,
2013-10-14 23:04:00,43.2,41.6,30.35,WSW,249,0.2,1.6,94,0.00,,,0.00,ow4j130929,2013-10-15 06:04:00,
2013-10-14 23:09:00,43.6,42.0,30.35,North,-999,0.0,0.0,94,0.00,,,0.00,ow4j130929,2013-10-15 06:09:00,
2013-10-14 23:14:00,43.8,42.2,30.34,North,-999,0.0,0.0,94,0.00,,,0.00,ow4j130929,2013-10-15 06:14:00,
2013-10-14 23:19:00,43.8,42.3,30.34,North,-999,0.0,0.0,94,0.00,,,0.00,ow4j130929,2013-10-15 06:19:00,
2013-10-14 23:24:00,43.3,41.8,30.34,North,-999,0.0,0.0,94,0.00,,,0.00,ow4j130929,2013-10-15 06:24:00,
2013-10-14 23:29:00,43.1,41.5,30.34,North,-999,0.0,0.0,94,0.00,,,0.00,ow4j130929,2013-10-15 06:29:00,
2013-10-14 23:34:00,43.1,41.7,30.34,North,-999,0.0,0.0,95,0.00,,,0.00,ow4j130929,2013-10-15 06:34:00,
2013-10-14 23:39:00,43.2,41.7,30.34,North,-999,0.0,0.0,95,0.00,,,0.00,ow4j130929,2013-10-15 06:39:00,
2013-10-14 23:44:00,42.7,41.1,30.34,North,-999,0.0,0.0,94,0.00,,,0.00,ow4j130929,2013-10-15 06:44:00,
2013-10-14 23:49:00,42.0,40.4,30.34,North,-999,0.0,0.0,94,0.00,,,0.00,ow4j130929,2013-10-15 06:49:00,
2013-10-14 23:54:00,41.4,39.7,30.34,North,-999,0.0,0.0,94,0.00,,,0.00,ow4j130929,2013-10-15 06:54:00,
2013-10-14 23:59:00,41.2,39.5,30.34,North,-999,0.0,0.0,94,0.00,,,0.00,ow4j130929,2013-10-15 06:59:00,